When you browse on this site, cookies collect data to enhance your experience and personalize the content and advertising you see.
Visit our Privacy Policy to learn more. By continuing to use the site, you agree to this use of cookies and data.
  • In Lithuania
  • List of Countries
  • For 7 days
  • Water Temperature
  • Satellite Maps
  • Weather Map
  • Weather Widgets
  • user-avatar
    Login

    Hourly Weather Escaldes-Engordany

    Today, 21 May, Tuesday

    Time Temperature Precipitation Wind Pressure Humidity
    00:00 +5°C° 0 mm 1 mps 636 mmHg 95%
    01:00 +5°C° 0 mm 1 mps 636 mmHg 95%
    02:00 +5°C° 0 mm 1 mps 636 mmHg 95%
    03:00 +5°C° 0 mm 1 mps 636 mmHg 95%
    04:00 +5°C° 0 mm 1 mps 636 mmHg 93%
    05:00 +6°C° 0 mm 1 mps 636 mmHg 91%
    06:00 +6°C° 0 mm 1 mps 637 mmHg 89%
    07:00 +8°C° 0 mm 1 mps 637 mmHg 79%
    08:00 +10°C° 0 mm 1 mps 638 mmHg 70%
    09:00 +12°C° 0 mm 1 mps 639 mmHg 61%
    10:00 +13°C° 0.1 mm 1 mps 639 mmHg 59%
    11:00 +13°C° 0.1 mm 1 mps 639 mmHg 58%
    12:00 +14°C° 0.1 mm 1 mps 639 mmHg 56%
    13:00 +14°C° 0.3 mm 1 mps 639 mmHg 58%
    14:00 +13°C° 0.3 mm 1 mps 639 mmHg 60%
    15:00 +13°C° 0.3 mm 1 mps 638 mmHg 61%
    16:00 +12°C° 0.5 mm 1 mps 638 mmHg 68%
    17:00 +11°C° 0.5 mm 1 mps 638 mmHg 75%
    18:00 +10°C° 0.5 mm 1 mps 637 mmHg 82%
    19:00 +9°C° 0.2 mm 1 mps 638 mmHg 84%
    20:00 +8°C° 0.2 mm 1 mps 638 mmHg 87%
    21:00 +8°C° 0.2 mm 1 mps 638 mmHg 90%
    22:00 +7°C° 0 mm 1 mps 638 mmHg 91%
    23:00 +6°C° 0 mm 1 mps 638 mmHg 92%

    Tomorrow, 22 May, Wednesday

    Time Temperature Precipitation Wind Pressure Humidity
    00:00 +6°C° 0 mm 1 mps 638 mmHg 93%
    01:00 +6°C° 0 mm 1 mps 638 mmHg 92%
    02:00 +5°C° 0 mm 1 mps 637 mmHg 92%
    03:00 +5°C° 0 mm 1 mps 637 mmHg 92%
    04:00 +6°C° 0 mm 1 mps 638 mmHg 89%
    05:00 +7°C° 0 mm 1 mps 638 mmHg 87%
    06:00 +8°C° 0 mm 1 mps 639 mmHg 84%
    07:00 +10°C° 0 mm 1 mps 640 mmHg 73%
    08:00 +13°C° 0 mm 1 mps 640 mmHg 62%
    09:00 +15°C° 0 mm 1 mps 641 mmHg 50%
    10:00 +15°C° 0.1 mm 1 mps 641 mmHg 49%
    11:00 +16°C° 0.1 mm 1 mps 641 mmHg 48%
    12:00 +18°C° 0.1 mm 1 mps 641 mmHg 46%
    13:00 +16°C° 0.6 mm 1 mps 641 mmHg 51%
    14:00 +15°C° 0.6 mm 1 mps 641 mmHg 56%
    15:00 +15°C° 0.6 mm 1 mps 640 mmHg 60%
    16:00 +14°C° 0.4 mm 1 mps 640 mmHg 64%
    17:00 +14°C° 0.4 mm 1 mps 640 mmHg 69%
    18:00 +13°C° 0.4 mm 1 mps 639 mmHg 73%
    19:00 +11°C° 0.1 mm 1 mps 639 mmHg 78%
    20:00 +10°C° 0.1 mm 1 mps 639 mmHg 84%
    21:00 +8°C° 0.1 mm 1 mps 639 mmHg 89%
    22:00 +8°C° 0 mm 1 mps 639 mmHg 89%
    23:00 +8°C° 0 mm 1 mps 638 mmHg 89%

    Day after tomorrow, 23 May, Thursday

    Time Temperature Precipitation Wind Pressure Humidity
    00:00 +7°C° 0 mm 1 mps 638 mmHg 89%
    01:00 +7°C° 0 mm 1 mps 638 mmHg 88%
    02:00 +7°C° 0 mm 1 mps 638 mmHg 86%
    03:00 +7°C° 0 mm 1 mps 638 mmHg 85%
    04:00 +8°C° 0 mm 1 mps 638 mmHg 82%
    05:00 +9°C° 0 mm 1 mps 639 mmHg 79%
    06:00 +10°C° 0 mm 1 mps 639 mmHg 75%
    07:00 +12°C° 0 mm 1 mps 640 mmHg 66%
    08:00 +15°C° 0 mm 1 mps 641 mmHg 56%
    09:00 +18°C° 0 mm 1 mps 642 mmHg 47%
    10:00 +19°C° 0 mm 1 mps 642 mmHg 44%
    11:00 +20°C° 0 mm 1 mps 643 mmHg 41%
    12:00 +21°C° 0 mm 1 mps 643 mmHg 38%
    13:00 +20°C° 0.2 mm 1 mps 642 mmHg 47%
    14:00 +18°C° 0.2 mm 1 mps 641 mmHg 56%
    15:00 +15°C° 0.2 mm 1 mps 640 mmHg 64%
    16:00 +14°C° 1.2 mm 1 mps 639 mmHg 72%
    17:00 +13°C° 1.2 mm 1 mps 639 mmHg 80%
    18:00 +11°C° 1.2 mm 1 mps 638 mmHg 88%
    19:00 +11°C° 1.2 mm 1 mps 639 mmHg 90%
    20:00 +11°C° 1.2 mm 1 mps 639 mmHg 92%
    21:00 +10°C° 1.2 mm 1 mps 639 mmHg 94%
    22:00 +10°C° 0.1 mm 1 mps 639 mmHg 94%
    23:00 +10°C° 0.1 mm 1 mps 639 mmHg 93%

    24 May, Friday

    Time Temperature Precipitation Wind Pressure Humidity
    00:00 +9°C° 0.1 mm 1 mps 639 mmHg 93%
    01:00 +9°C° 0 mm 1 mps 638 mmHg 93%
    02:00 +9°C° 0 mm 1 mps 638 mmHg 92%
    03:00 +9°C° 0 mm 1 mps 638 mmHg 92%
    04:00 +9°C° 0.2 mm 1 mps 638 mmHg 91%
    05:00 +9°C° 0.2 mm 1 mps 638 mmHg 91%
    06:00 +10°C° 0.2 mm 1 mps 638 mmHg 90%
    07:00 +10°C° 1 mm 1 mps 639 mmHg 90%
    08:00 +10°C° 1 mm 1 mps 639 mmHg 89%
    09:00 +11°C° 1 mm 1 mps 639 mmHg 89%
    10:00 +10°C° 1.7 mm 1 mps 639 mmHg 91%
    11:00 +10°C° 1.7 mm 1 mps 639 mmHg 93%
    12:00 +10°C° 1.7 mm 1 mps 639 mmHg 94%
    13:00 +9°C° 0.8 mm 2 mps 639 mmHg 93%
    14:00 +9°C° 0.8 mm 2 mps 639 mmHg 91%
    15:00 +10°C° 0.8 mm 2 mps 638 mmHg 89%
    16:00 +9°C° 0.3 mm 2 mps 638 mmHg 89%
    17:00 +9°C° 0.3 mm 2 mps 638 mmHg 88%
    18:00 +9°C° 0.3 mm 2 mps 638 mmHg 87%
    19:00 +8°C° 0.1 mm 2 mps 638 mmHg 88%
    20:00 +7°C° 0.1 mm 2 mps 638 mmHg 88%
    21:00 +7°C° 0.1 mm 2 mps 638 mmHg 89%
    22:00 +7°C° 0.2 mm 2 mps 638 mmHg 90%
    23:00 +7°C° 0.2 mm 2 mps 638 mmHg 91%

    25 May, Saturday

    Time Temperature Precipitation Wind Pressure Humidity
    00:00 +7°C° 0.2 mm 2 mps 639 mmHg 92%
    01:00 +7°C° 0.1 mm 2 mps 638 mmHg 93%
    02:00 +7°C° 0.1 mm 2 mps 638 mmHg 93%
    03:00 +7°C° 0.1 mm 2 mps 638 mmHg 94%
    04:00 +7°C° 0.3 mm 2 mps 638 mmHg 93%
    05:00 +8°C° 0.3 mm 2 mps 639 mmHg 92%
    06:00 +8°C° 0.3 mm 2 mps 639 mmHg 91%
    07:00 +8°C° 0.4 mm 3 mps 639 mmHg 88%
    08:00 +9°C° 0.4 mm 3 mps 639 mmHg 85%
    09:00 +10°C° 0.4 mm 3 mps 640 mmHg 81%
    10:00 +10°C° 0.2 mm 3 mps 640 mmHg 78%
    11:00 +11°C° 0.2 mm 3 mps 640 mmHg 76%
    12:00 +11°C° 0.2 mm 3 mps 640 mmHg 73%
    13:00 +12°C° 0 mm 3 mps 640 mmHg 67%
    14:00 +13°C° 0 mm 3 mps 640 mmHg 62%
    15:00 +14°C° 0 mm 3 mps 640 mmHg 56%
    16:00 +13°C° 0 mm 3 mps 640 mmHg 61%
    17:00 +12°C° 0 mm 3 mps 640 mmHg 66%
    18:00 +11°C° 0 mm 3 mps 639 mmHg 71%
    19:00 +10°C° 0.2 mm 3 mps 639 mmHg 76%
    20:00 +9°C° 0.2 mm 3 mps 639 mmHg 81%
    21:00 +8°C° 0.2 mm 3 mps 640 mmHg 87%
    22:00 +7°C° 0.3 mm 3 mps 640 mmHg 87%
    23:00 +7°C° 0.3 mm 3 mps 639 mmHg 87%

    26 May, Sunday

    Time Temperature Precipitation Wind Pressure Humidity
    00:00 +7°C° 0.3 mm 3 mps 639 mmHg 87%
    01:00 +7°C° 0 mm 3 mps 639 mmHg 88%
    02:00 +5°C° 0 mm 3 mps 639 mmHg 88%
    03:00 +6°C° 0 mm 2 mps 639 mmHg 89%
    04:00 +6°C° 0 mm 2 mps 639 mmHg 86%
    05:00 +5°C° 0 mm 3 mps 639 mmHg 83%
    06:00 +7°C° 0 mm 3 mps 640 mmHg 80%
    07:00 +9°C° 0 mm 3 mps 640 mmHg 75%
    08:00 +10°C° 0 mm 3 mps 641 mmHg 70%
    09:00 +12°C° 0 mm 3 mps 642 mmHg 65%
    10:00 +13°C° 0 mm 3 mps 642 mmHg 62%
    11:00 +14°C° 0 mm 3 mps 642 mmHg 58%
    12:00 +16°C° 0 mm 2 mps 642 mmHg 55%
    13:00 +16°C° 0 mm 2 mps 642 mmHg 52%
    14:00 +17°C° 0 mm 2 mps 642 mmHg 50%
    15:00 +17°C° 0 mm 2 mps 642 mmHg 48%
    16:00 +16°C° 0 mm 2 mps 641 mmHg 54%
    17:00 +15°C° 0 mm 2 mps 641 mmHg 60%
    18:00 +14°C° 0 mm 2 mps 640 mmHg 67%
    19:00 +12°C° 0 mm 2 mps 640 mmHg 75%
    20:00 +9°C° 0 mm 2 mps 640 mmHg 82%
    21:00 +7°C° 0 mm 2 mps 639 mmHg 90%
    22:00 +7°C° 0 mm 2 mps 639 mmHg 91%
    23:00 +7°C° 0 mm 2 mps 639 mmHg 91%
    Show more